QPF
0.04 0.05 0.05 0.05 0.04 0.05 0.04 0.04 0.05 0.06 0.05 0.05 0.06 0.07 0.07 0.07 0.09 0.11 0.10 0.08 0.05 0.06 0.07 0.07 0.08 0.07 0.07 0.06 0.05 0.05 0.04 0.03 0.03 0.05 0.06 0.08 0.12 0.10 0.06 0.05 0.04 0.04 0.04
0.04 0.04 0.05 0.04 0.03 0.04 0.05 0.04 0.04 0.05 0.05 0.05 0.05 0.06 0.05 0.06 0.08 0.09 0.08 0.07 0.06 0.06 0.08 0.08 0.08 0.07 0.06 0.05 0.04 0.04 0.03 0.03 0.04 0.07 0.07 0.06 0.07 0.09 0.09 0.08 0.08 0.06 0.05
0.04 0.06 0.05 0.04 0.03 0.03 0.03 0.03 0.04 0.06 0.06 0.07 0.07 0.06 0.05 0.06 0.05 0.05 0.07 0.08 0.08 0.08 0.10 0.10 0.08 0.07 0.06 0.05 0.04 0.04 0.03 0.03 0.02 0.03 0.04 0.05 0.05 0.05 0.06 0.06 0.08 0.09 0.06
0.04 0.05 0.05 0.03 0.02 0.02 0.03 0.03 0.04 0.06 0.09 0.10 0.08 0.07 0.06 0.06 0.05 0.05 0.07 0.09 0.12 0.13 0.13 0.15 0.12 0.08 0.05 0.04 0.03 0.04 0.04 0.03 0.03 0.02 0.03 0.03 0.03 0.04 0.04 0.04 0.05 0.05 0.06
0.04 0.06 0.05 0.04 0.03 0.02 0.03 0.03 0.05 0.06 0.09 0.10 0.07 0.08 0.07 0.07 0.07 0.08 0.09 0.10 0.11 0.12 0.12 0.13 0.11 0.09 0.06 0.05 0.04 0.03 0.03 0.04 0.03 0.02 0.03 0.03 0.03 0.03 0.03 0.04 0.03 0.03 0.04
0.03 0.05 0.06 0.05 0.03 0.03 0.04 0.04 0.05 0.06 0.09 0.09 0.06 0.07 0.09 0.09 0.09 0.11 0.14 0.16 0.12 0.10 0.10 0.10 0.08 0.07 0.06 0.05 0.04 0.03 0.03 0.03 0.03 0.03 0.03 0.03 0.03 0.03 0.05 0.07 0.06 0.03 0.03
0.05 0.06 0.05 0.07 0.05 0.06 0.07 0.06 0.07 0.08 0.09 0.10 0.10 0.12 0.14 0.13 0.14 0.14 0.14 0.14 0.13 0.11 0.08 0.07 0.07 0.06 0.06 0.04 0.02 0.02 0.03 0.04 0.05 0.05 0.04 0.02 0.02 0.02 0.05 0.13 0.17 0.09 0.04
0.06 0.06 0.07 0.07 0.06 0.06 0.07 0.06 0.07 0.08 0.08 0.10 0.12 0.14 0.19 0.22 0.20 0.14 0.11 0.13 0.14 0.12 0.09 0.07 0.08 0.11 0.08 0.05 0.03 0.03 0.04 0.04 0.06 0.06 0.05 0.04 0.03 0.02 0.03 0.05 0.10 0.09 0.05
0.06 0.10 0.12 0.11 0.10 0.08 0.08 0.08 0.07 0.06 0.09 0.10 0.11 0.15 0.23 0.26 0.21 0.14 0.10 0.10 0.11 0.10 0.09 0.07 0.06 0.08 0.08 0.08 0.08 0.06 0.04 0.04 0.06 0.07 0.06 0.04 0.03 0.04 0.03 0.03 0.03 0.05 0.05
0.04 0.07 0.09 0.10 0.08 0.07 0.08 0.08 0.07 0.06 0.08 0.10 0.12 0.16 0.21 0.23 0.18 0.16 0.14 0.10 0.09 0.09 0.08 0.06 0.07 0.06 0.06 0.10 0.10 0.06 0.04 0.04 0.06 0.07 0.07 0.06 0.05 0.04 0.04 0.04 0.03 0.03 0.03
0.03 0.03 0.06 0.06 0.07 0.06 0.05 0.05 0.07 0.06 0.07 0.10 0.13 0.18 0.21 0.23 0.16 0.11 0.12 0.12 0.09 0.08 0.07 0.06 0.05 0.06 0.05 0.06 0.06 0.04 0.03 0.02 0.02 0.02 0.03 0.04 0.04 0.04 0.03 0.03 0.02 0.02 0.02
0.04 0.04 0.04 0.06 0.07 0.06 0.06 0.07 0.07 0.07 0.07 0.09 0.12 0.15 0.18 0.19 0.14 0.11 0.09 0.08 0.07 0.06 0.05 0.04 0.04 0.05 0.05 0.04 0.03 0.05 0.04 0.02 0.02 0.01 0.01 0.01 0.01 0.01 0.01 0.01 0.01 0.01 0.02
0.04 0.05 0.04 0.07 0.09 0.11 0.11 0.11 0.10 0.09 0.08 0.10 0.12 0.13 0.12 0.12 0.10 0.09 0.08 0.07 0.06 0.05 0.04 0.02 0.02 0.03 0.04 0.03 0.02 0.03 0.02 0.01 0.02 0.01 0.01 0.01 0.01 0.00 0.00 0.00 0.01 0.01 0.01
0.04 0.06 0.06 0.06 0.06 0.07 0.08 0.10 0.11 0.11 0.11 0.12 0.12 0.11 0.10 0.09 0.08 0.06 0.07 0.07 0.07 0.06 0.04 0.03 0.02 0.02 0.02 0.03 0.03 0.02 0.00 0.00 0.01 0.01 0.01 0.01 0.01 0.01 0.00 0.00 0.00 0.00 0.00
0.03 0.05 0.04 0.04 0.04 0.04 0.06 0.08 0.08 0.10 0.13 0.13 0.12 0.10 0.08 0.07 0.07 0.06 0.06 0.07 0.07 0.06 0.06 0.05 0.04 0.02 0.02 0.02 0.02 0.02 0.01 0.01 0.00 0.00 0.00 0.00 0.00 0.00 0.00 0.00 0.00 0.00 0.00
0.03 0.03 0.02 0.02 0.03 0.03 0.04 0.05 0.07 0.08 0.10 0.09 0.08 0.08 0.09 0.07 0.07 0.05 0.05 0.05 0.07 0.06 0.06 0.04 0.03 0.02 0.02 0.02 0.04 0.03 0.02 0.03 0.01 0.01 0.00 0.00 0.00 0.00 0.00 0.00 0.00 0.01 0.02
0.04 0.03 0.03 0.02 0.03 0.03 0.04 0.06 0.05 0.05 0.05 0.05 0.05 0.06 0.06 0.08 0.08 0.07 0.05 0.05 0.06 0.06 0.05 0.04 0.03 0.04 0.05 0.04 0.04 0.04 0.03 0.03 0.02 0.03 0.02 0.01 0.01 0.00 0.00 0.00 0.00 0.01 0.03
0.04 0.03 0.02 0.02 0.02 0.03 0.05 0.06 0.05 0.05 0.05 0.06 0.07 0.08 0.07 0.07 0.07 0.07 0.06 0.04 0.05 0.05 0.04 0.05 0.05 0.06 0.06 0.06 0.05 0.05 0.03 0.02 0.01 0.03 0.03 0.02 0.01 0.00 0.00 0.00 0.00 0.00 0.01
0.03 0.02 0.02 0.02 0.02 0.03 0.04 0.06 0.06 0.07 0.07 0.07 0.09 0.10 0.09 0.08 0.07 0.06 0.05 0.04 0.04 0.04 0.05 0.05 0.05 0.06 0.05 0.05 0.04 0.03 0.02 0.02 0.01 0.01 0.02 0.01 0.01 0.02 0.01 0.01 0.01 0.01 0.00
0.02 0.02 0.02 0.02 0.02 0.02 0.03 0.05 0.07 0.07 0.07 0.08 0.09 0.10 0.10 0.10 0.09 0.07 0.05 0.05 0.05 0.05 0.06 0.06 0.06 0.06 0.06 0.05 0.04 0.03 0.02 0.02 0.01 0.00 0.01 0.01 0.01 0.01 0.01 0.01 0.01 0.01 0.01
0.04 0.03 0.03 0.03 0.03 0.02 0.03 0.04 0.05 0.07 0.08 0.08 0.10 0.10 0.08 0.08 0.08 0.07 0.05 0.04 0.05 0.05 0.05 0.07 0.08 0.07 0.06 0.06 0.04 0.04 0.03 0.03 0.02 0.01 0.01 0.01 0.01 0.01 0.02 0.02 0.01 0.01 0.01
0.06 0.05 0.05 0.04 0.04 0.03 0.03 0.04 0.05 0.08 0.08 0.08 0.08 0.07 0.05 0.05 0.05 0.06 0.06 0.06 0.06 0.05 0.05 0.06 0.06 0.06 0.05 0.05 0.05 0.05 0.04 0.04 0.03 0.02 0.03 0.02 0.01 0.02 0.02 0.02 0.01 0.01 0.01
0.07 0.06 0.06 0.05 0.05 0.04 0.05 0.03 0.04 0.05 0.06 0.05 0.05 0.05 0.05 0.06 0.07 0.07 0.07 0.07 0.06 0.04 0.03 0.04 0.05 0.04 0.04 0.04 0.05 0.05 0.05 0.05 0.05 0.03 0.04 0.04 0.04 0.03 0.03 0.03 0.03 0.02 0.02
0.11 0.09 0.06 0.04 0.04 0.04 0.05 0.04 0.04 0.04 0.05 0.05 0.04 0.03 0.03 0.04 0.05 0.05 0.05 0.04 0.03 0.02 0.02 0.03 0.03 0.03 0.03 0.04 0.05 0.05 0.05 0.06 0.05 0.04 0.04 0.06 0.06 0.06 0.05 0.03 0.03 0.02 0.02
0.09 0.09 0.09 0.06 0.04 0.03 0.03 0.03 0.03 0.03 0.04 0.04 0.03 0.03 0.03 0.03 0.03 0.03 0.04 0.03 0.02 0.02 0.02 0.02 0.01 0.02 0.02 0.03 0.03 0.04 0.05 0.06 0.05 0.04 0.04 0.05 0.05 0.05 0.04 0.02 0.02 0.01 0.01
0.10 0.09 0.09 0.08 0.05 0.03 0.02 0.02 0.02 0.02 0.03 0.03 0.04 0.03 0.04 0.03 0.03 0.02 0.03 0.04 0.03 0.02 0.03 0.03 0.02 0.01 0.01 0.02 0.02 0.03 0.04 0.05 0.05 0.05 0.04 0.04 0.05 0.05 0.04 0.03 0.02 0.02 0.02
MSLP
1006.77 1006.93 1007.13 1007.38 1007.67 1008.00 1008.36 1008.73 1009.10 1009.48 1009.86 1010.25 1010.64 1011.03 1011.42 1011.79 1012.14 1012.45 1012.71 1012.96 1013.20 1013.47 1013.80 1014.19 1014.68 1015.23 1015.81 1016.39 1016.94 1017.40 1017.78 1018.08 1018.31 1018.50 1018.68 1018.87 1019.09 1019.33 1019.58 1019.81 1020.03 1020.22 1020.39
1007.02 1007.13 1007.31 1007.55 1007.85 1008.21 1008.62 1009.06 1009.52 1009.98 1010.43 1010.86 1011.26 1011.63 1011.96 1012.23 1012.45 1012.62 1012.77 1012.91 1013.09 1013.32 1013.65 1014.08 1014.61 1015.21 1015.84 1016.46 1017.01 1017.49 1017.86 1018.14 1018.36 1018.54 1018.71 1018.90 1019.12 1019.36 1019.61 1019.85 1020.08 1020.28 1020.46
1007.26 1007.33 1007.46 1007.67 1007.96 1008.33 1008.77 1009.26 1009.78 1010.31 1010.82 1011.30 1011.72 1012.08 1012.35 1012.54 1012.66 1012.72 1012.76 1012.81 1012.93 1013.13 1013.46 1013.91 1014.47 1015.10 1015.77 1016.40 1016.98 1017.45 1017.83 1018.11 1018.32 1018.51 1018.69 1018.89 1019.12 1019.37 1019.63 1019.88 1020.12 1020.33 1020.52
1007.48 1007.49 1007.57 1007.74 1008.00 1008.36 1008.80 1009.31 1009.86 1010.43 1010.99 1011.50 1011.95 1012.30 1012.55 1012.69 1012.74 1012.72 1012.69 1012.68 1012.74 1012.92 1013.24 1013.70 1014.28 1014.93 1015.61 1016.25 1016.83 1017.31 1017.69 1017.98 1018.21 1018.41 1018.62 1018.84 1019.10 1019.37 1019.64 1019.91 1020.15 1020.36 1020.57
1007.68 1007.62 1007.65 1007.76 1007.98 1008.30 1008.72 1009.21 1009.77 1010.35 1010.93 1011.46 1011.93 1012.29 1012.53 1012.66 1012.69 1012.64 1012.58 1012.54 1012.59 1012.77 1013.08 1013.54 1014.11 1014.76 1015.42 1016.06 1016.62 1017.10 1017.48 1017.78 1018.04 1018.27 1018.52 1018.78 1019.07 1019.36 1019.65 1019.92 1020.16 1020.38 1020.58
1007.88 1007.76 1007.72 1007.78 1007.95 1008.22 1008.58 1009.04 1009.56 1010.12 1010.68 1011.22 1011.70 1012.07 1012.34 1012.49 1012.54 1012.52 1012.48 1012.47 1012.54 1012.72 1013.04 1013.49 1014.04 1014.66 1015.29 1015.89 1016.42 1016.88 1017.26 1017.57 1017.86 1018.13 1018.42 1018.72 1019.04 1019.35 1019.65 1019.92 1020.15 1020.35 1020.53
1008.11 1007.93 1007.84 1007.85 1007.95 1008.16 1008.46 1008.84 1009.30 1009.81 1010.34 1010.86 1011.33 1011.73 1012.04 1012.25 1012.36 1012.42 1012.45 1012.51 1012.63 1012.85 1013.18 1013.62 1014.14 1014.71 1015.27 1015.81 1016.29 1016.71 1017.07 1017.39 1017.70 1018.00 1018.32 1018.66 1018.99 1019.32 1019.61 1019.86 1020.07 1020.24 1020.39
1008.41 1008.17 1008.04 1007.99 1008.04 1008.18 1008.40 1008.70 1009.07 1009.50 1009.97 1010.45 1010.92 1011.34 1011.70 1011.99 1012.21 1012.37 1012.52 1012.68 1012.88 1013.16 1013.51 1013.93 1014.41 1014.90 1015.39 1015.85 1016.25 1016.62 1016.94 1017.25 1017.56 1017.88 1018.22 1018.57 1018.92 1019.23 1019.51 1019.73 1019.90 1020.03 1020.14
1008.79 1008.52 1008.35 1008.25 1008.24 1008.30 1008.43 1008.63 1008.90 1009.24 1009.63 1010.06 1010.51 1010.95 1011.37 1011.75 1012.09 1012.39 1012.67 1012.95 1013.25 1013.59 1013.96 1014.36 1014.79 1015.20 1015.59 1015.95 1016.27 1016.57 1016.84 1017.13 1017.42 1017.75 1018.09 1018.44 1018.77 1019.07 1019.31 1019.48 1019.61 1019.69 1019.77
1009.26 1008.96 1008.75 1008.61 1008.54 1008.52 1008.55 1008.65 1008.81 1009.04 1009.35 1009.72 1010.14 1010.60 1011.07 1011.54 1011.99 1012.43 1012.84 1013.25 1013.64 1014.04 1014.43 1014.81 1015.17 1015.50 1015.79 1016.05 1016.28 1016.50 1016.72 1016.97 1017.25 1017.56 1017.89 1018.23 1018.53 1018.79 1018.99 1019.13 1019.21 1019.25 1019.30
1009.79 1009.47 1009.22 1009.04 1008.89 1008.79 1008.73 1008.71 1008.76 1008.89 1009.10 1009.41 1009.80 1010.26 1010.78 1011.32 1011.88 1012.43 1012.97 1013.47 1013.95 1014.39 1014.79 1015.14 1015.43 1015.68 1015.88 1016.04 1016.19 1016.34 1016.52 1016.74 1017.00 1017.30 1017.62 1017.93 1018.21 1018.43 1018.60 1018.69 1018.74 1018.76 1018.79
1010.33 1009.98 1009.70 1009.46 1009.25 1009.06 1008.90 1008.77 1008.72 1008.74 1008.87 1009.12 1009.47 1009.93 1010.48 1011.08 1011.71 1012.35 1012.98 1013.56 1014.09 1014.55 1014.94 1015.25 1015.49 1015.66 1015.78 1015.87 1015.96 1016.07 1016.21 1016.42 1016.67 1016.96 1017.27 1017.57 1017.83 1018.03 1018.16 1018.23 1018.26 1018.28 1018.31
1010.83 1010.47 1010.14 1009.84 1009.55 1009.27 1009.01 1008.79 1008.63 1008.57 1008.62 1008.81 1009.13 1009.58 1010.14 1010.78 1011.46 1012.16 1012.84 1013.47 1014.02 1014.49 1014.86 1015.13 1015.31 1015.42 1015.48 1015.52 1015.58 1015.67 1015.82 1016.03 1016.30 1016.60 1016.92 1017.21 1017.46 1017.65 1017.77 1017.83 1017.85 1017.88 1017.93
1011.25 1010.87 1010.51 1010.14 1009.78 1009.41 1009.06 1008.75 1008.50 1008.36 1008.35 1008.48 1008.77 1009.21 1009.77 1010.43 1011.14 1011.86 1012.57 1013.21 1013.77 1014.22 1014.56 1014.79 1014.93 1014.99 1015.03 1015.05 1015.11 1015.22 1015.39 1015.64 1015.94 1016.28 1016.62 1016.93 1017.18 1017.37 1017.48 1017.54 1017.58 1017.62 1017.71
1011.59 1011.19 1010.79 1010.36 1009.93 1009.48 1009.05 1008.66 1008.34 1008.13 1008.06 1008.16 1008.42 1008.83 1009.39 1010.05 1010.77 1011.50 1012.21 1012.85 1013.39 1013.82 1014.13 1014.33 1014.44 1014.49 1014.51 1014.55 1014.64 1014.79 1015.02 1015.32 1015.68 1016.07 1016.44 1016.77 1017.04 1017.23 1017.35 1017.43 1017.48 1017.54 1017.65
1011.82 1011.41 1010.98 1010.51 1010.02 1009.51 1009.01 1008.55 1008.17 1007.91 1007.80 1007.86 1008.09 1008.49 1009.03 1009.68 1010.39 1011.12 1011.82 1012.44 1012.97 1013.38 1013.67 1013.85 1013.95 1014.00 1014.05 1014.12 1014.26 1014.47 1014.77 1015.14 1015.56 1016.00 1016.41 1016.77 1017.06 1017.26 1017.38 1017.46 1017.52 1017.60 1017.72
1011.94 1011.54 1011.10 1010.61 1010.09 1009.54 1008.99 1008.48 1008.06 1007.75 1007.60 1007.62 1007.82 1008.20 1008.72 1009.35 1010.05 1010.76 1011.44 1012.06 1012.57 1012.96 1013.24 1013.43 1013.54 1013.61 1013.69 1013.82 1014.02 1014.30 1014.67 1015.11 1015.58 1016.07 1016.51 1016.89 1017.19 1017.39 1017.52 1017.60 1017.66 1017.74 1017.87
1011.96 1011.58 1011.15 1010.67 1010.13 1009.57 1009.00 1008.47 1008.01 1007.66 1007.47 1007.46 1007.62 1007.96 1008.45 1009.05 1009.73 1010.42 1011.09 1011.69 1012.19 1012.59 1012.88 1013.07 1013.21 1013.32 1013.45 1013.63 1013.89 1014.23 1014.66 1015.15 1015.67 1016.19 1016.65 1017.04 1017.34 1017.54 1017.67 1017.74 1017.79 1017.87 1018.00
1011.85 1011.51 1011.12 1010.67 1010.15 1009.60 1009.03 1008.49 1008.01 1007.64 1007.41 1007.35 1007.47 1007.76 1008.21 1008.77 1009.41 1010.08 1010.72 1011.31 1011.82 1012.22 1012.52 1012.75 1012.92 1013.07 1013.25 1013.48 1013.79 1014.18 1014.65 1015.18 1015.72 1016.25 1016.72 1017.11 1017.41 1017.60 1017.72 1017.79 1017.84 1017.92 1018.04
1011.59 1011.31 1010.98 1010.58 1010.11 1009.59 1009.05 1008.51 1008.03 1007.64 1007.37 1007.27 1007.33 1007.56 1007.95 1008.45 1009.04 1009.67 1010.29 1010.87 1011.37 1011.78 1012.11 1012.36 1012.57 1012.77 1012.99 1013.27 1013.62 1014.04 1014.53 1015.07 1015.62 1016.15 1016.61 1017.00 1017.28 1017.48 1017.60 1017.67 1017.73 1017.82 1017.96
1011.19 1010.96 1010.69 1010.36 1009.96 1009.50 1009.00 1008.49 1008.01 1007.61 1007.32 1007.16 1007.17 1007.33 1007.64 1008.07 1008.60 1009.17 1009.75 1010.30 1010.79 1011.21 1011.56 1011.84 1012.09 1012.33 1012.59 1012.90 1013.28 1013.72 1014.22 1014.75 1015.29 1015.81 1016.26 1016.64 1016.92 1017.13 1017.26 1017.36 1017.46 1017.58 1017.75
1010.64 1010.46 1010.25 1009.98 1009.65 1009.26 1008.82 1008.36 1007.91 1007.51 1007.20 1007.00 1006.95 1007.04 1007.27 1007.62 1008.07 1008.57 1009.09 1009.60 1010.07 1010.49 1010.85 1011.16 1011.44 1011.71 1012.00 1012.34 1012.73 1013.18 1013.68 1014.20 1014.73 1015.23 1015.67 1016.05 1016.34 1016.57 1016.74 1016.89 1017.04 1017.22 1017.44
1009.98 1009.82 1009.65 1009.45 1009.19 1008.87 1008.50 1008.10 1007.69 1007.31 1007.00 1006.78 1006.67 1006.70 1006.85 1007.11 1007.47 1007.89 1008.35 1008.80 1009.24 1009.64 1010.00 1010.32 1010.63 1010.93 1011.25 1011.61 1012.01 1012.47 1012.96 1013.47 1013.98 1014.47 1014.91 1015.29 1015.61 1015.87 1016.10 1016.30 1016.53 1016.78 1017.08
1009.28 1009.12 1008.96 1008.79 1008.58 1008.33 1008.03 1007.69 1007.34 1007.00 1006.71 1006.49 1006.36 1006.33 1006.41 1006.60 1006.87 1007.21 1007.59 1007.98 1008.37 1008.74 1009.09 1009.42 1009.74 1010.07 1010.42 1010.80 1011.22 1011.68 1012.16 1012.67 1013.16 1013.64 1014.08 1014.47 1014.82 1015.12 1015.41 1015.68 1015.98 1016.31 1016.69
1008.63 1008.42 1008.24 1008.07 1007.89 1007.68 1007.43 1007.16 1006.88 1006.60 1006.35 1006.15 1006.02 1005.97 1006.01 1006.13 1006.33 1006.59 1006.89 1007.22 1007.56 1007.90 1008.23 1008.57 1008.90 1009.25 1009.62 1010.02 1010.45 1010.92 1011.40 1011.89 1012.38 1012.85 1013.28 1013.69 1014.06 1014.40 1014.74 1015.07 1015.43 1015.83 1016.26
1008.12 1007.82 1007.58 1007.37 1007.18 1006.98 1006.77 1006.56 1006.34 1006.12 1005.93 1005.77 1005.67 1005.62 1005.64 1005.72 1005.87 1006.07 1006.31 1006.58 1006.87 1007.18 1007.50 1007.83 1008.18 1008.54 1008.94 1009.36 1009.80 1010.26 1010.74 1011.22 1011.69 1012.15 1012.58 1012.98 1013.37 1013.73 1014.10 1014.48 1014.87 1015.30 1015.76
Thickness
5764 5763 5761 5761 5760 5760 5759 5757 5756 5755 5755 5755 5755 5754 5753 5752 5750 5748 5745 5744 5743 5742 5741 5740 5738 5737 5736 5735 5734 5733 5732 5731 5731 5730 5729 5728 5727 5727 5725 5724 5722 5721 5720
5763 5762 5761 5760 5759 5758 5757 5756 5755 5754 5753 5752 5752 5751 5751 5750 5748 5746 5744 5743 5742 5740 5739 5739 5737 5736 5735 5734 5733 5732 5731 5731 5731 5730 5728 5727 5726 5725 5724 5723 5721 5720 5719
5762 5761 5760 5759 5758 5757 5756 5755 5754 5752 5751 5749 5749 5749 5749 5748 5747 5746 5744 5742 5741 5739 5738 5737 5737 5735 5734 5733 5732 5731 5731 5730 5730 5729 5727 5726 5725 5724 5722 5721 5720 5718 5717
5762 5760 5758 5758 5757 5757 5755 5753 5751 5749 5747 5746 5746 5747 5747 5746 5746 5745 5744 5742 5740 5738 5737 5736 5735 5734 5733 5732 5731 5730 5729 5728 5728 5727 5726 5725 5724 5723 5721 5719 5718 5717 5716
5761 5758 5757 5757 5757 5756 5754 5753 5750 5747 5745 5744 5744 5745 5745 5745 5745 5744 5743 5741 5740 5738 5737 5734 5733 5732 5731 5730 5729 5728 5727 5727 5726 5726 5725 5724 5723 5721 5720 5718 5717 5716 5714
5759 5758 5757 5756 5755 5753 5752 5751 5748 5747 5745 5744 5744 5743 5743 5744 5744 5743 5742 5741 5739 5738 5737 5734 5732 5731 5729 5728 5727 5726 5725 5725 5725 5724 5724 5722 5721 5720 5718 5716 5715 5714 5713
5758 5757 5756 5754 5753 5751 5749 5749 5747 5744 5743 5743 5740 5737 5739 5742 5741 5741 5740 5739 5738 5737 5735 5733 5731 5730 5728 5726 5725 5724 5723 5723 5723 5722 5721 5720 5719 5718 5716 5715 5713 5712 5711
5757 5756 5754 5753 5751 5749 5748 5746 5744 5741 5741 5742 5736 5731 5727 5729 5734 5738 5737 5736 5736 5735 5733 5732 5730 5728 5727 5725 5724 5722 5721 5721 5721 5720 5719 5718 5716 5715 5714 5713 5711 5710 5708
5755 5754 5753 5752 5750 5749 5746 5744 5742 5740 5737 5739 5738 5732 5725 5721 5725 5730 5733 5734 5733 5732 5730 5730 5728 5727 5726 5725 5723 5721 5720 5719 5718 5717 5716 5715 5714 5712 5711 5709 5708 5707 5706
5753 5752 5751 5750 5749 5748 5746 5744 5742 5741 5738 5734 5736 5736 5734 5730 5723 5720 5725 5729 5730 5729 5728 5728 5726 5725 5725 5723 5721 5720 5718 5717 5716 5715 5713 5712 5711 5709 5708 5706 5705 5704 5703
5751 5751 5750 5748 5746 5745 5744 5743 5741 5740 5738 5735 5733 5732 5731 5730 5729 5721 5717 5721 5724 5726 5726 5725 5724 5724 5723 5721 5719 5717 5716 5715 5714 5712 5710 5709 5708 5706 5705 5704 5703 5702 5701
5749 5749 5748 5746 5744 5744 5743 5741 5740 5738 5736 5735 5733 5731 5728 5725 5724 5723 5718 5718 5718 5720 5723 5724 5723 5722 5721 5719 5718 5715 5714 5712 5711 5709 5708 5707 5705 5704 5703 5702 5700 5699 5698
5746 5746 5746 5744 5743 5742 5741 5740 5738 5736 5735 5733 5731 5729 5728 5727 5727 5724 5720 5717 5717 5717 5719 5720 5721 5721 5720 5717 5715 5713 5711 5710 5709 5707 5706 5704 5703 5702 5700 5699 5698 5697 5696
5746 5746 5744 5743 5741 5740 5739 5737 5736 5734 5732 5731 5729 5728 5726 5726 5726 5724 5721 5717 5712 5713 5714 5715 5719 5719 5718 5715 5712 5711 5709 5708 5706 5705 5703 5702 5700 5699 5698 5697 5695 5694 5693
5746 5744 5742 5740 5739 5738 5737 5735 5732 5731 5730 5728 5726 5725 5724 5724 5724 5724 5722 5719 5712 5706 5707 5712 5713 5716 5715 5713 5711 5708 5707 5705 5704 5702 5701 5699 5698 5697 5696 5694 5693 5691 5690
5743 5741 5740 5738 5737 5736 5734 5732 5729 5728 5727 5725 5724 5722 5721 5721 5721 5722 5721 5719 5716 5710 5705 5710 5711 5713 5713 5711 5707 5706 5705 5703 5701 5700 5698 5697 5696 5694 5693 5691 5689 5688 5686
5740 5738 5737 5736 5734 5733 5732 5729 5727 5726 5724 5723 5722 5720 5718 5718 5717 5718 5717 5715 5713 5710 5703 5706 5709 5710 5708 5706 5704 5703 5701 5700 5699 5697 5696 5694 5693 5691 5689 5688 5686 5684 5682
5736 5735 5734 5733 5732 5730 5728 5726 5724 5723 5721 5720 5719 5717 5716 5715 5714 5713 5711 5710 5709 5708 5704 5701 5702 5703 5703 5703 5701 5700 5699 5698 5697 5695 5693 5692 5690 5688 5686 5684 5682 5680 5678
5733 5732 5731 5729 5727 5726 5725 5723 5722 5720 5719 5718 5716 5714 5712 5711 5709 5708 5707 5706 5705 5705 5703 5700 5698 5699 5698 5698 5696 5696 5696 5695 5695 5693 5690 5688 5687 5684 5682 5680 5678 5675 5673
5729 5728 5727 5726 5724 5723 5722 5720 5720 5718 5717 5715 5714 5712 5710 5707 5705 5704 5703 5701 5700 5699 5698 5696 5694 5693 5692 5693 5691 5689 5688 5689 5690 5690 5687 5685 5683 5680 5678 5676 5673 5671 5668
5725 5725 5723 5722 5721 5719 5717 5716 5715 5715 5712 5711 5709 5707 5706 5704 5702 5700 5699 5696 5695 5693 5691 5689 5688 5686 5685 5684 5683 5684 5682 5683 5684 5685 5682 5680 5678 5675 5673 5671 5669 5666 5663
5719 5718 5717 5716 5714 5713 5712 5711 5710 5710 5708 5705 5704 5703 5701 5699 5697 5695 5693 5692 5690 5688 5685 5682 5681 5679 5679 5679 5679 5678 5675 5673 5673 5677 5675 5674 5674 5671 5670 5667 5665 5662 5659
5711 5711 5710 5709 5707 5706 5704 5704 5704 5704 5702 5700 5699 5698 5697 5695 5693 5690 5688 5686 5684 5683 5681 5679 5675 5674 5673 5673 5672 5670 5669 5668 5667 5671 5668 5666 5668 5665 5666 5663 5660 5657 5654
5704 5704 5703 5703 5701 5699 5697 5697 5696 5697 5696 5694 5693 5692 5689 5687 5686 5683 5682 5679 5678 5677 5676 5674 5672 5670 5669 5668 5667 5665 5664 5663 5665 5666 5665 5659 5660 5659 5659 5656 5653 5651 5648
5698 5697 5696 5695 5694 5692 5691 5690 5689 5690 5688 5687 5687 5685 5683 5680 5677 5675 5673 5671 5669 5669 5669 5668 5667 5665 5664 5663 5661 5659 5656 5654 5653 5655 5656 5653 5652 5651 5651 5648 5646 5643 5641
5691 5691 5690 5688 5688 5687 5685 5684 5683 5683 5682 5681 5679 5677 5675 5673 5670 5667 5665 5663 5661 5662 5662 5661 5660 5659 5658 5657 5655 5652 5650 5647 5645 5645 5647 5645 5643 5641 5639 5641 5638 5635 5632